Ardmore Downtown, OK

10:15 PM CDT on September 19, 2019 (GMT -0500)
Ardmore Downtown

Weather History for K1F0 - August, 2019

Change the Weather History Date:

Sunday, August 25, 2019

  Actual Average (KADM) Record (KADM)
Temperature  
Mean Temperature 79 °F -  
Max Temperature 87 °F 91 °F 104 °F (1999)
Min Temperature 71 °F 70 °F 66 °F (1997)
Cooling Degree Days 14    
Growing Degree Days 29 (Base 50)    
Moisture  
Dew Point 71 °F    
Average Humidity 75    
Maximum Humidity 100    
Minimum Humidity 55    
Precipitation  
Precipitation 0.00 in - - ()
Sea Level Pressure  
Sea Level Pressure 29.85 in    
Wind  
Wind Speed 3 mph (ESE)    
Max Wind Speed 10 mph    
Max Gust Speed 16 mph    
Visibility 8 miles    
Events Fog    
Averages and records for this station are not official NWS values.
T = Trace of Precipitation, MM = Missing Value Source: NWS Daily Summary

Daily Weather History Graph

Daily Weather History Graph

Search for Another Location

Airport or City:

Astronomy

Aug. 25, 2019 Rise Set
Actual Time 6:56 AM CDT 8:03 PM CDT
Civil Twilight 6:30 AM CDT 8:29 PM CDT
Nautical Twilight 6:00 AM CDT 9:00 PM CDT
Astronomical Twilight 5:28 AM CDT 9:32 PM CDT
Moon 1:40 AM CDT (8/25) 4:16 PM CDT (8/25)
Length of Visible Light 13h 58m
Length of Day
13h 06m
Waning Crescent, 29% of the Moon is Illuminated
Aug 25
Waning Crescent
Aug 30
New
Sep 5
First Quarter
Sep 13
Full
Sep 21
Last Quarter

Hourly Weather History & Observations

Time (CDT) Temp. Heat Index Dew Point Humidity Pressure Visibility Wind Dir Wind Speed Gust Speed Precip Events Conditions
3:15 AM 71.6 °F - 69.8 °F 94% 29.88 in 7.0 mi Calm Calm - N/A   Clear
3:35 AM 71.6 °F - 69.8 °F 94% 29.88 in 7.0 mi Calm Calm - N/A   Clear
3:55 AM 71.6 °F - 69.8 °F 94% 29.88 in 7.0 mi Calm Calm - N/A   Clear
4:15 AM 71.6 °F - 69.8 °F 94% 29.88 in 7.0 mi Calm Calm - N/A   Clear
4:55 AM 71.6 °F - 69.8 °F 94% 29.91 in 7.0 mi Calm Calm - N/A   Clear
5:15 AM 71.6 °F - 69.8 °F 94% 29.91 in 7.0 mi Calm Calm - N/A   Clear
5:35 AM 71.6 °F - 69.8 °F 94% 29.91 in 7.0 mi Calm Calm - N/A   Clear
5:55 AM 71.6 °F - 69.8 °F 94% 29.91 in 5.0 mi Calm Calm - N/A   Mostly Cloudy
6:15 AM 71.6 °F - 69.8 °F 94% 29.91 in 0.5 mi NNE 4.6 mph - N/A Fog Fog
6:35 AM 71.6 °F - 69.8 °F 94% 29.89 in 0.5 mi ESE 3.5 mph - N/A Fog Fog
6:55 AM 71.6 °F - 69.8 °F 94% 29.89 in 1.0 mi Calm Calm - N/A   Overcast
7:15 AM 71.6 °F - 69.8 °F 94% 29.88 in 0.5 mi Calm Calm - N/A Fog Fog
7:35 AM 71.6 °F - 69.8 °F 94% 29.87 in 0.8 mi Calm Calm - N/A   Overcast
7:55 AM 71.6 °F - 69.8 °F 94% 29.88 in 4.0 mi Calm Calm - N/A   Mostly Cloudy
8:15 AM 71.6 °F - 71.6 °F 100% 29.88 in 5.0 mi South 4.6 mph - N/A   Scattered Clouds
8:35 AM 73.4 °F - 71.6 °F 94% 29.88 in 10.0 mi South 3.5 mph - N/A   Scattered Clouds
9:15 AM 77.0 °F - 71.6 °F 83% 29.88 in 10.0 mi South 6.9 mph - N/A   Clear
9:35 AM 78.8 °F - 71.6 °F 78% 29.91 in 10.0 mi Calm Calm - N/A   Clear
9:55 AM 80.6 °F 84.6 °F 71.6 °F 74% 29.92 in 10.0 mi NE 5.8 mph - N/A   Clear
10:15 AM 80.6 °F 84.6 °F 71.6 °F 74% 29.92 in 10.0 mi NNE 6.9 mph - N/A   Scattered Clouds
10:35 AM 78.8 °F - 71.6 °F 78% 29.93 in 10.0 mi NE 9.2 mph - N/A   Scattered Clouds
11:15 AM 80.6 °F 84.6 °F 71.6 °F 74% 29.93 in 10.0 mi NE 8.1 mph - N/A   Scattered Clouds
11:35 AM 80.6 °F 84.6 °F 71.6 °F 74% 29.92 in 10.0 mi ENE 5.8 mph - N/A   Scattered Clouds
11:55 AM 82.4 °F 86.3 °F 69.8 °F 66% 29.90 in 10.0 mi East 4.6 mph - N/A   Clear
12:15 PM 82.4 °F 86.3 °F 69.8 °F 66% 29.89 in 10.0 mi East 5.8 mph - N/A   Scattered Clouds
12:35 PM 82.4 °F 87.2 °F 71.6 °F 70% 29.88 in 10.0 mi East 8.1 mph - N/A   Scattered Clouds
12:55 PM 82.4 °F 86.3 °F 69.8 °F 66% 29.88 in 10.0 mi East 5.8 mph - N/A   Scattered Clouds
1:15 PM 82.4 °F 87.2 °F 71.6 °F 70% 29.88 in 10.0 mi East 8.1 mph - N/A   Mostly Cloudy
1:35 PM 82.4 °F 87.2 °F 71.6 °F 70% 29.87 in 10.0 mi ESE 9.2 mph - N/A   Scattered Clouds
1:55 PM 84.2 °F 89.6 °F 71.6 °F 66% 29.86 in 10.0 mi East 9.2 mph - N/A   Scattered Clouds
2:15 PM 84.2 °F 89.6 °F 71.6 °F 66% 29.85 in 10.0 mi ESE 9.2 mph - N/A   Scattered Clouds
2:35 PM 86.0 °F 91.8 °F 71.6 °F 62% 29.83 in 10.0 mi SE 9.2 mph - N/A   Scattered Clouds
2:55 PM 87.8 °F 92.6 °F 69.8 °F 55% 29.82 in 10.0 mi SE 10.4 mph - N/A   Scattered Clouds
3:15 PM 87.8 °F 92.6 °F 69.8 °F 55% 29.80 in 10.0 mi ESE 10.4 mph 16.1 mph N/A   Scattered Clouds
3:55 PM 87.8 °F 92.6 °F 69.8 °F 55% 29.79 in 10.0 mi SSE 9.2 mph - N/A   Scattered Clouds
4:15 PM 87.8 °F 92.6 °F 69.8 °F 55% 29.78 in 10.0 mi SE 8.1 mph - N/A   Scattered Clouds
4:35 PM 87.8 °F 92.6 °F 69.8 °F 55% 29.77 in 10.0 mi SSE 8.1 mph - N/A   Clear
4:55 PM 87.8 °F 92.6 °F 69.8 °F 55% 29.77 in 10.0 mi ESE 6.9 mph - N/A   Clear
5:15 PM 87.8 °F 93.8 °F 71.6 °F 58% 29.77 in 10.0 mi SE 6.9 mph - N/A   Clear
5:35 PM 87.8 °F 93.8 °F 71.6 °F 58% 29.76 in 10.0 mi SE 8.1 mph - N/A   Clear
5:55 PM 87.8 °F 93.8 °F 71.6 °F 58% 29.76 in 10.0 mi East 8.1 mph - N/A   Clear
6:15 PM 87.8 °F 93.8 °F 71.6 °F 58% 29.76 in 10.0 mi SE 9.2 mph - N/A   Clear
6:35 PM 87.8 °F 93.8 °F 71.6 °F 58% 29.76 in 10.0 mi ESE 8.1 mph - N/A   Clear
6:50 PM 87.8 °F 93.8 °F 71.6 °F 58% 29.76 in 10.0 mi ESE 5.8 mph - N/A   Clear
7:15 PM 86.0 °F 91.8 °F 71.6 °F 62% 29.76 in 10.0 mi East 3.5 mph - N/A   Clear
7:40 PM 84.2 °F 89.6 °F 71.6 °F 66% 29.76 in 10.0 mi East 3.5 mph - N/A   Clear
7:55 PM 82.4 °F 87.2 °F 71.6 °F 70% 29.76 in 10.0 mi ENE 3.5 mph - N/A   Clear
8:35 PM 82.4 °F 87.2 °F 71.6 °F 70% 29.77 in 10.0 mi ENE 3.5 mph - N/A   Clear
8:55 PM 80.6 °F 83.9 °F 69.8 °F 70% 29.77 in 10.0 mi ENE 3.5 mph - N/A   Clear
10:15 PM 80.6 °F 84.6 °F 71.6 °F 74% 29.79 in 10.0 mi ESE 4.6 mph - N/A   Clear
10:35 PM 80.6 °F 84.6 °F 71.6 °F 74% 29.79 in 10.0 mi ESE 4.6 mph - N/A   Clear
10:50 PM 80.6 °F 84.6 °F 71.6 °F 74% 29.79 in 10.0 mi ESE 4.6 mph - N/A   Clear